Total_Precipitation_Accumulation
0.00 0.00 0.00 0.00 0.00 0.00 0.00 0.00 0.00 0.00 0.00 0.00 0.00 0.00 0.00 0.00 0.00 0.00 0.00 0.00 0.00 0.00 0.00 0.00 0.00 0.00 0.00 0.00 0.00 0.00 0.00 0.00 0.01 0.02 0.05 0.17 0.40 0.32 0.13 0.09 0.16 0.27 0.46 0.62 0.50
0.01 0.01 0.01 0.00 0.00 0.00 0.01 0.01 0.00 0.00 0.00 0.00 0.00 0.00 0.00 0.00 0.00 0.00 0.00 0.00 0.00 0.00 0.00 0.00 0.00 0.00 0.00 0.00 0.00 0.00 0.00 0.00 0.00 0.05 0.22 0.30 0.46 0.19 0.16 0.38 0.38 0.96 0.58 0.91 0.64
0.01 0.01 0.00 0.00 0.00 0.00 0.00 0.00 0.00 0.00 0.00 0.00 0.00 0.00 0.00 0.00 0.00 0.00 0.00 0.00 0.00 0.00 0.00 0.00 0.00 0.00 0.00 0.00 0.00 0.00 0.00 0.00 0.01 0.04 0.10 0.07 0.07 0.02 0.03 0.05 0.31 0.50 0.44 0.52 0.61
0.00 0.00 0.00 0.00 0.00 0.00 0.00 0.00 0.00 0.00 0.00 0.00 0.00 0.00 0.00 0.00 0.00 0.00 0.00 0.00 0.00 0.00 0.00 0.00 0.00 0.00 0.00 0.00 0.00 0.00 0.00 0.00 0.00 0.03 0.04 0.00 0.05 0.02 0.02 0.05 0.08 0.15 0.28 0.46 0.59
0.00 0.00 0.00 0.00 0.01 0.00 0.00 0.00 0.00 0.00 0.00 0.00 0.00 0.00 0.00 0.00 0.00 0.00 0.00 0.00 0.00 0.00 0.00 0.00 0.00 0.00 0.00 0.00 0.00 0.00 0.00 0.00 0.03 0.01 0.00 0.00 0.00 0.07 0.06 0.09 0.27 0.17 0.60 0.69 0.64
0.01 0.00 0.00 0.00 0.00 0.00 0.00 0.00 0.00 0.00 0.00 0.00 0.00 0.00 0.00 0.00 0.00 0.00 0.00 0.00 0.00 0.00 0.00 0.00 0.00 0.00 0.00 0.00 0.00 0.00 0.00 0.00 0.00 0.00 0.00 0.01 0.00 0.01 0.18 0.30 0.68 0.58 0.86 0.95 0.61
0.08 0.03 0.01 0.00 0.00 0.00 0.00 0.00 0.00 0.00 0.00 0.00 0.00 0.00 0.00 0.00 0.00 0.00 0.00 0.00 0.00 0.00 0.00 0.00 0.00 0.00 0.00 0.00 0.00 0.00 0.00 0.00 0.00 0.00 0.00 0.02 0.08 0.16 0.07 0.06 0.19 0.41 0.35 0.41 0.30
0.36 0.16 0.05 0.01 0.00 0.00 0.00 0.00 0.00 0.00 0.00 0.00 0.00 0.00 0.00 0.00 0.00 0.00 0.00 0.00 0.00 0.00 0.00 0.00 0.00 0.00 0.00 0.00 0.00 0.00 0.00 0.01 0.09 0.00 0.00 0.00 0.13 0.28 0.06 0.08 0.09 0.10 0.09 0.19 0.29
0.65 0.51 0.29 0.15 0.09 0.04 0.02 0.01 0.00 0.00 0.00 0.00 0.00 0.00 0.00 0.00 0.00 0.00 0.00 0.00 0.00 0.00 0.00 0.00 0.00 0.00 0.00 0.00 0.00 0.00 0.00 0.00 0.00 0.00 0.00 0.00 0.01 0.07 0.06 0.04 0.06 0.04 0.01 0.05 0.35
0.42 0.37 0.28 0.22 0.13 0.11 0.09 0.05 0.01 0.00 0.00 0.00 0.00 0.00 0.00 0.00 0.00 0.00 0.00 0.00 0.00 0.00 0.00 0.00 0.00 0.00 0.00 0.00 0.00 0.00 0.00 0.00 0.00 0.00 0.00 0.00 0.00 0.03 0.04 0.02 0.01 0.01 0.00 0.01 0.02
0.42 0.34 0.21 0.16 0.16 0.21 0.16 0.08 0.03 0.02 0.00 0.00 0.00 0.00 0.00 0.00 0.00 0.00 0.00 0.00 0.00 0.00 0.00 0.00 0.00 0.00 0.00 0.00 0.00 0.00 0.00 0.00 0.00 0.00 0.00 0.00 0.00 0.02 0.04 0.03 0.13 0.01 0.00 0.00 0.00
0.51 0.49 0.33 0.24 0.24 0.27 0.14 0.09 0.03 0.01 0.00 0.00 0.00 0.00 0.00 0.00 0.00 0.00 0.00 0.00 0.00 0.00 0.00 0.00 0.00 0.00 0.00 0.00 0.00 0.00 0.00 0.00 0.00 0.00 0.00 0.00 0.00 0.01 0.02 0.02 0.05 0.02 0.01 0.00 0.00
0.51 0.47 0.46 0.57 0.53 0.29 0.07 0.04 0.01 0.00 0.02 0.00 0.00 0.00 0.00 0.00 0.00 0.00 0.00 0.00 0.00 0.00 0.00 0.00 0.02 0.00 0.00 0.00 0.00 0.00 0.00 0.00 0.00 0.00 0.00 0.00 0.00 0.00 0.01 0.03 0.02 0.03 0.01 0.00 0.00
0.55 0.58 0.55 0.55 0.51 0.09 0.07 0.02 0.01 0.02 0.09 0.00 0.00 0.00 0.00 0.00 0.00 0.00 0.00 0.00 0.00 0.00 0.00 0.01 0.00 0.00 0.00 0.00 0.00 0.01 0.00 0.00 0.00 0.01 0.02 0.00 0.02 0.02 0.00 0.01 0.01 0.01 0.01 0.01 0.01
0.33 0.45 0.40 0.44 0.20 0.07 0.06 0.09 0.12 0.18 0.37 0.01 0.00 0.00 0.00 0.00 0.00 0.00 0.00 0.00 0.00 0.00 0.01 0.03 0.00 0.00 0.00 0.00 0.00 0.03 0.00 0.00 0.00 0.00 0.01 0.01 0.01 0.01 0.00 0.00 0.00 0.00 0.01 0.00 0.01
0.29 0.33 0.34 0.47 0.14 0.10 0.08 0.18 0.62 0.79 0.48 0.01 0.00 0.00 0.00 0.00 0.00 0.00 0.00 0.00 0.00 0.00 0.00 0.00 0.00 0.00 0.01 0.00 0.00 0.00 0.00 0.00 0.00 0.00 0.00 0.01 0.01 0.01 0.01 0.01 0.01 0.00 0.00 0.00 0.02
0.19 0.30 0.45 0.19 0.11 0.03 0.13 0.75 1.39 0.97 0.06 0.00 0.00 0.00 0.00 0.00 0.00 0.00 0.00 0.00 0.00 0.00 0.00 0.00 0.00 0.00 0.00 0.00 0.00 0.00 0.00 0.03 0.16 0.05 0.02 0.05 0.06 0.02 0.01 0.01 0.05 0.01 0.01 0.00 0.01
0.27 0.34 0.48 0.27 0.15 0.18 0.47 1.03 1.43 0.41 0.01 0.00 0.00 0.00 0.00 0.00 0.00 0.00 0.00 0.00 0.00 0.00 0.00 0.00 0.01 0.00 0.00 0.00 0.01 0.01 0.03 0.14 0.24 0.11 0.11 0.09 0.03 0.01 0.00 0.00 0.00 0.01 0.00 0.00 0.00
0.74 0.48 0.46 0.26 0.30 0.47 1.20 1.27 0.54 0.10 0.00 0.00 0.00 0.00 0.00 0.00 0.00 0.00 0.00 0.00 0.00 0.01 0.00 0.00 0.00 0.01 0.00 0.00 0.03 0.08 0.09 0.07 0.17 0.12 0.14 0.04 0.01 0.02 0.01 0.01 0.00 0.01 0.01 0.02 0.03
1.06 0.83 0.27 0.22 0.54 1.18 2.14 1.38 0.29 0.00 0.00 0.00 0.03 0.01 0.01 0.00 0.02 0.01 0.01 0.00 0.00 0.01 0.00 0.01 0.04 0.01 0.01 0.02 0.04 0.03 0.04 0.12 0.28 0.40 0.22 0.08 0.08 0.13 0.06 0.06 0.13 0.13 0.12 0.13 0.13
1.54 1.68 0.66 0.35 1.21 2.10 2.05 1.06 0.17 0.00 0.00 0.03 0.03 0.05 0.01 0.01 0.04 0.09 0.08 0.02 0.00 0.01 0.01 0.00 0.05 0.05 0.01 0.06 0.14 0.16 0.15 0.16 0.21 0.21 0.31 0.23 0.15 0.19 0.16 0.21 0.32 0.43 0.46 0.33 0.26
2.45 2.35 1.06 1.32 1.82 1.40 0.76 0.20 0.09 0.01 0.01 0.02 0.03 0.04 0.05 0.02 0.03 0.04 0.04 0.03 0.00 0.00 0.00 0.00 0.04 0.03 0.01 0.02 0.07 0.16 0.34 0.64 0.93 0.66 0.44 0.44 0.18 0.11 0.10 0.16 0.33 1.10 1.12 0.68 0.51
3.05 2.05 2.00 2.38 2.46 1.12 0.27 0.11 0.05 0.01 0.04 0.14 0.10 0.04 0.04 0.05 0.14 0.04 0.04 0.01 0.01 0.01 0.04 0.09 0.19 0.22 0.06 0.11 0.16 0.15 0.11 0.25 0.49 0.60 0.44 0.56 0.19 0.08 0.16 0.30 0.42 0.91 0.90 0.75 0.55
3.09 2.67 2.93 2.78 1.48 0.91 0.54 0.33 0.19 0.05 0.04 0.16 0.45 0.23 0.16 0.18 0.19 0.18 0.11 0.05 0.04 0.03 0.03 0.19 0.14 0.16 0.11 0.11 0.17 0.10 0.04 0.07 0.23 0.49 0.26 0.22 0.15 0.30 0.30 0.38 0.77 0.59 0.47 0.61 0.60
5.23 2.23 1.02 1.39 1.08 0.57 0.53 0.50 0.29 0.21 0.11 0.14 0.24 0.47 0.70 0.67 0.33 0.30 0.25 0.24 0.11 0.07 0.10 0.27 0.36 0.08 0.03 0.01 0.02 0.03 0.01 0.01 0.04 0.12 0.31 0.16 0.21 0.32 0.33 0.44 0.62 0.39 0.45 0.31 0.67
4.95 1.75 0.73 0.29 0.20 0.42 0.61 0.60 0.32 0.16 0.31 0.35 0.37 0.21 0.35 0.81 0.97 0.71 0.63 0.75 0.58 0.41 0.43 0.52 0.73 0.34 0.22 0.02 0.01 0.02 0.02 0.01 0.02 0.03 0.04 0.05 0.08 0.04 0.04 0.10 0.09 0.10 0.11 0.21 0.37
3.62 1.17 0.99 0.75 0.34 0.42 0.46 0.38 0.35 0.55 0.44 0.27 0.60 0.72 0.45 0.36 0.41 0.34 0.43 0.51 0.58 0.62 0.79 0.86 0.67 0.59 0.38 0.04 0.12 0.30 0.07 0.03 0.15 0.24 0.18 0.15 0.11 0.02 0.04 0.08 0.15 0.13 0.10 0.12 0.12